GEFSMA_500_meanwind_096.txt.gz
Wind_Speed
26 26 26 26 26 25 24 24 23 23 22 21 20 20 20 20 19 18 18 19 19 19 19 20 20 20 20 20 20 20 20 21 22 22 22 22 23 23 23 23 23 24 24
27 26 26 26 26 26 24 24 24 24 23 22 22 22 22 22 22 21 20 20 20 21 22 22 23 23 23 23 23 23 23 23 23 23 24 24 24 25 25 26 27 27 28
26 26 26 27 26 26 25 25 25 24 25 24 24 24 24 24 24 23 23 23 23 23 24 24 25 26 25 25 25 25 25 25 25 26 26 26 27 27 27 28 29 30 30
26 27 28 28 27 27 27 26 27 26 26 26 25 25 25 25 25 25 26 26 26 26 26 27 27 28 27 27 28 28 28 28 29 29 29 28 29 30 30 31 32 32 33
27 28 28 28 28 28 28 28 27 27 27 27 26 26 26 27 27 27 28 29 29 28 28 29 30 30 30 30 31 31 31 32 32 32 32 33 33 34 34 35 35 36 37
27 27 28 28 28 28 28 28 28 28 29 29 28 28 28 28 29 30 30 31 31 31 31 31 32 33 33 33 33 34 34 34 35 35 36 37 37 38 38 38 38 39 40
23 25 26 28 28 28 28 29 29 29 30 29 29 29 29 30 31 31 33 32 33 33 34 34 34 34 34 35 36 37 37 37 38 38 39 40 41 41 42 42 42 43 43
24 23 25 26 27 28 29 29 30 29 30 30 30 30 30 31 31 32 33 34 34 35 35 36 37 38 37 37 38 39 40 40 41 42 42 43 44 44 44 45 45 45 46
25 25 24 24 26 27 29 30 29 29 29 30 30 30 31 31 33 34 35 36 36 37 37 38 38 40 40 40 41 42 42 43 43 44 45 45 45 46 47 48 48 48 49
24 24 24 24 25 26 27 29 30 29 30 31 31 31 32 34 35 35 36 36 37 38 39 40 40 41 42 42 43 44 45 46 46 47 47 48 49 49 50 51 51 51 51
26 25 25 24 25 25 26 27 28 29 30 30 31 32 34 35 35 36 36 37 38 38 39 40 41 42 44 44 46 47 47 48 49 50 50 51 52 53 53 53 53 53 53
27 26 26 26 26 26 27 28 29 29 30 30 31 32 33 34 34 36 37 38 39 39 40 42 43 45 46 47 48 48 49 50 51 52 53 53 54 54 54 54 54 55 55
27 27 27 28 29 28 28 29 30 30 30 31 32 33 34 36 36 37 37 38 40 40 41 43 45 46 47 48 49 50 51 51 52 53 54 55 55 55 55 55 55 56 56
28 28 28 29 29 29 30 30 31 32 32 33 34 35 35 36 36 36 38 40 42 43 43 45 46 47 48 49 50 51 52 53 54 54 55 55 55 55 55 55 55 55 55
28 28 28 28 29 30 31 32 32 32 33 33 34 35 35 35 35 36 38 40 42 44 45 46 46 47 49 49 50 51 51 52 52 52 52 52 52 52 52 52 53 53 53
29 28 29 28 29 30 30 31 31 31 33 33 33 34 34 35 36 37 39 40 42 44 45 45 46 47 48 49 49 50 50 49 49 49 49 49 49 49 49 49 50 49 49
28 29 29 29 29 30 30 30 31 31 32 32 33 33 35 36 37 38 39 40 42 43 44 45 45 46 47 47 47 47 47 46 46 46 46 46 46 46 46 46 45 45 45
29 29 29 30 30 30 30 30 32 33 33 34 34 35 36 37 37 38 39 40 41 42 43 44 44 44 44 44 44 43 43 43 43 42 42 42 41 41 41 41 41 41 41
28 29 29 29 29 30 30 31 32 32 33 34 35 35 36 36 37 38 39 40 40 41 42 42 41 40 40 40 40 39 39 39 38 37 36 36 36 36 36 36 36 36 36
29 29 29 29 29 29 30 30 31 32 32 33 33 34 34 35 36 37 37 38 38 38 38 37 36 36 36 35 35 34 34 34 33 33 32 32 32 32 32 31 31 31 31
26 27 27 27 27 28 29 29 30 31 32 32 32 32 33 34 34 34 34 34 33 33 32 32 31 31 31 30 30 31 30 30 29 28 28 28 28 28 28 27 27 28 28
24 25 25 25 26 27 28 29 29 30 30 30 31 31 31 31 31 30 30 30 29 29 28 28 28 27 27 27 28 28 27 26 26 26 25 25 25 25 24 24 25 25 25
22 23 24 25 25 26 27 27 28 28 28 28 29 28 28 28 28 28 28 27 27 26 26 25 25 25 25 25 25 25 24 23 23 22 22 22 22 22 22 22 22 22 23
20 20 21 22 23 24 25 25 25 26 26 26 26 26 26 26 26 26 26 25 24 24 23 23 23 22 22 22 22 21 21 20 20 20 20 20 20 20 20 20 20 21 21
18 18 19 20 21 21 22 22 23 24 24 24 24 23 23 23 23 23 23 22 22 21 21 21 20 20 19 19 19 19 19 18 18 18 18 18 18 18 18 18 18 19 20
17 17 18 18 19 19 20 21 21 21 21 21 20 21 21 21 21 21 21 20 20 19 19 18 17 18 18 18 18 18 17 16 16 16 16 16 16 16 15 15 16 17 18

GEFSMA_500_meanwind_102.txt.gz
Wind_Speed
25 26 26 27 26 26 26 25 24 22 22 22 21 21 20 20 18 18 19 18 18 17 17 18 17 17 17 17 17 18 18 18 18 18 18 19 19 20 20 21 21 22 22
24 25 26 27 27 27 26 26 25 24 22 23 22 22 22 21 20 20 20 20 20 19 19 19 20 20 20 20 19 20 20 21 21 21 20 20 21 22 22 23 23 23 24
25 25 26 26 26 27 27 26 26 26 24 23 24 23 22 22 22 21 21 21 21 21 21 21 21 21 22 22 22 22 23 23 24 24 24 24 24 25 25 25 26 26 27
25 24 24 24 25 25 26 26 24 25 25 24 23 24 23 23 22 22 22 22 23 23 23 24 24 24 24 24 25 25 26 26 26 27 27 27 27 28 28 29 29 30 30
23 23 23 23 24 25 25 25 24 24 24 23 22 23 24 24 24 24 24 24 24 24 24 25 25 25 26 27 27 27 27 28 28 29 29 29 30 30 31 31 32 33 33
20 21 21 23 23 24 24 25 25 25 24 24 24 24 25 25 25 25 25 25 25 25 26 26 27 28 28 29 29 29 30 30 31 31 31 32 33 33 34 34 35 35 36
19 19 20 21 23 24 24 24 24 24 24 25 26 26 26 27 27 27 27 27 27 28 28 28 29 29 30 30 31 31 32 33 33 34 34 35 36 36 37 37 37 38 39
20 20 20 21 23 23 23 24 24 25 25 25 26 27 28 29 29 29 29 29 30 30 30 31 31 31 31 32 33 33 34 35 36 36 37 37 38 38 39 39 40 41 41
21 20 19 19 20 22 22 22 22 25 26 26 26 28 28 29 29 29 30 31 32 32 32 32 32 33 34 35 35 36 37 36 37 37 38 39 40 40 41 42 43 43 44
20 20 19 18 20 21 21 22 22 23 25 26 27 28 28 29 30 30 31 32 33 33 33 34 34 35 36 36 37 37 37 38 38 39 39 40 42 42 43 45 46 47 48
23 22 21 19 19 21 21 22 23 24 24 26 27 28 28 29 30 31 31 33 34 34 35 35 36 37 37 38 37 37 38 39 40 41 42 43 45 46 47 48 49 50 50
24 23 22 22 21 22 22 22 23 24 25 26 27 28 29 29 30 31 32 33 34 35 35 36 36 38 38 38 39 40 41 42 43 44 45 46 47 48 49 50 50 51 51
26 25 24 24 23 23 23 23 23 25 26 27 28 28 29 30 30 31 32 32 33 35 36 37 38 38 38 39 40 41 42 43 44 45 46 47 48 49 50 50 51 51 52
26 26 25 25 24 24 24 24 25 26 27 28 29 30 30 31 32 33 33 34 34 35 36 37 37 37 39 40 41 43 44 45 46 46 47 48 49 49 50 50 51 51 51
26 26 25 25 25 26 26 26 26 27 28 29 29 29 31 31 32 32 33 33 34 34 35 36 37 39 40 41 42 43 44 44 45 46 47 48 48 49 49 49 50 50 49
26 26 26 26 26 26 26 27 27 27 27 28 28 29 29 30 31 31 32 33 34 34 36 37 38 40 41 42 43 43 44 44 45 45 46 46 47 47 47 47 47 46 46
27 28 27 26 26 25 26 26 27 27 27 28 28 29 30 30 31 32 32 34 35 36 36 37 38 40 41 42 42 42 43 43 43 44 43 43 43 43 43 42 42 42 42
26 26 26 25 26 26 26 27 27 28 28 28 29 29 29 30 31 32 32 34 34 35 36 37 38 39 40 40 40 40 40 40 39 39 39 39 38 38 38 38 38 38 38
23 24 24 25 26 26 26 27 27 27 27 27 28 29 29 30 31 32 32 33 34 35 36 37 37 37 37 37 37 36 35 35 35 35 35 35 34 34 34 34 34 34 34
23 23 24 24 25 25 25 26 26 26 26 27 27 28 29 31 31 32 33 33 34 34 34 34 34 33 33 33 32 32 32 32 32 32 31 31 31 31 30 30 29 29 29
21 22 23 22 22 23 24 25 26 26 27 27 28 29 29 30 31 31 31 31 31 31 31 30 30 30 30 29 29 29 29 29 29 29 28 28 28 27 26 25 25 26 26
20 20 20 21 22 22 23 24 25 26 27 27 28 29 29 29 29 29 28 28 28 28 28 28 28 28 28 27 27 27 27 26 26 26 25 24 24 23 23 22 23 23 23
18 19 19 20 21 22 23 24 24 25 26 26 27 27 27 26 25 25 25 25 26 26 26 26 26 26 26 25 24 24 24 24 23 22 22 21 21 20 20 20 20 20 20
16 17 18 19 20 20 21 22 22 23 23 23 23 23 23 23 23 23 24 24 24 24 24 24 24 23 23 22 21 21 21 21 20 19 19 19 18 18 18 18 18 18 18
14 15 16 17 17 17 18 18 19 20 20 20 20 20 21 21 21 22 22 22 22 22 21 21 21 20 20 19 19 19 18 18 17 17 17 17 17 16 16 16 16 16 16
11 12 13 14 14 14 15 16 17 17 18 18 17 17 18 18 18 19 19 19 19 19 19 18 18 18 18 17 17 17 16 16 16 16 16 16 15 15 14 14 14 15 15

GEFSMA_500_meanwind_108.txt.gz
Wind_Speed
26 26 26 25 26 25 26 25 25 25 24 23 22 22 22 21 20 20 19 19 19 19 18 18 18 17 17 16 17 17 17 16 16 16 16 16 16 17 18 18 19 19 20
27 26 26 26 26 26 26 27 26 25 24 23 23 23 23 23 22 21 21 21 21 21 20 20 20 19 18 18 18 18 18 18 18 18 18 19 19 20 20 21 21 22 22
27 27 27 26 26 26 27 27 26 25 24 24 23 22 22 22 22 22 22 22 22 22 22 22 21 21 21 20 20 20 20 21 21 21 22 21 22 22 23 23 24 24 25
28 28 28 28 27 27 26 26 26 25 25 25 24 23 23 23 23 23 23 23 23 24 23 23 23 23 23 22 23 23 23 23 24 23 24 24 24 24 25 25 26 27 27
28 28 29 29 27 26 26 26 26 24 24 24 25 24 24 24 24 23 23 24 24 24 24 24 24 25 24 24 25 26 26 25 25 26 26 27 27 27 28 28 29 29 30
26 26 28 28 27 25 26 26 26 25 24 25 25 24 24 24 25 24 25 25 25 26 26 26 26 26 27 27 27 27 27 27 27 28 29 29 30 30 30 31 32 32 33
22 22 24 25 26 26 25 25 25 25 25 25 26 25 25 25 26 26 26 26 26 27 27 27 27 28 29 29 29 29 30 30 30 31 31 31 32 32 33 34 34 34 35
21 21 22 24 25 25 25 25 26 27 27 26 27 27 27 28 28 27 28 28 29 29 29 30 30 31 32 32 32 32 33 33 34 33 33 34 34 35 35 35 35 36 37
23 23 23 23 24 25 25 24 26 27 27 28 27 28 29 30 30 29 29 30 30 31 32 32 33 33 33 34 34 34 34 34 34 34 35 36 36 36 37 37 38 39 40
23 23 23 23 23 23 23 24 25 26 27 27 27 28 28 29 30 30 31 31 32 33 33 33 34 35 35 35 35 36 36 36 36 37 37 37 38 38 39 40 41 42 43
23 23 23 22 22 23 24 24 24 25 26 27 26 27 27 27 29 30 30 30 31 32 33 33 33 35 35 36 36 37 37 38 38 38 38 39 39 40 41 42 43 44 45
23 23 23 22 21 22 23 23 24 24 24 26 26 26 27 27 28 29 30 31 31 31 32 33 34 35 36 36 37 37 37 37 37 37 38 39 40 41 43 44 45 46 46
24 23 23 23 22 22 22 22 22 22 23 24 26 26 27 28 29 30 30 30 31 32 32 32 34 35 36 36 37 37 37 37 38 39 40 41 42 43 44 45 46 47 48
25 24 24 24 23 23 23 22 21 22 23 24 25 26 26 27 27 30 30 31 31 31 32 33 34 35 35 36 37 37 38 38 39 40 42 43 43 44 45 46 47 48 49
25 25 25 24 24 23 23 23 23 23 23 24 25 25 27 27 28 28 29 30 30 30 31 32 33 34 36 37 38 38 39 39 40 41 42 43 44 45 45 46 47 48 48
26 26 26 25 24 24 24 25 25 25 25 25 26 26 27 27 27 28 29 29 31 32 32 33 34 35 36 38 38 39 39 40 41 42 42 43 44 44 45 45 44 44 44
27 27 26 26 25 26 26 25 25 25 26 26 26 26 27 27 28 29 30 31 32 33 33 34 35 35 36 37 38 38 39 40 40 41 41 41 41 41 41 40 40 39 39
24 25 25 25 26 26 27 27 26 26 27 27 27 28 29 29 30 30 31 32 33 33 34 35 35 36 36 36 37 37 38 38 38 39 38 38 38 37 37 36 36 36 35
23 23 24 25 25 25 25 26 26 27 27 27 28 29 29 30 30 31 32 32 33 33 34 35 36 36 36 36 36 36 36 36 36 36 35 35 34 34 34 33 33 32 32
23 23 24 24 25 25 25 25 26 27 27 27 28 29 29 30 30 31 31 32 33 33 34 34 34 34 34 34 34 34 34 34 33 33 33 32 32 31 31 30 30 29 29
22 22 22 22 23 24 24 24 24 25 25 26 27 28 29 29 30 31 31 31 31 31 31 31 31 32 32 31 31 32 31 31 31 31 31 30 29 28 28 27 26 26 26
20 21 21 22 22 23 23 24 24 24 25 26 27 28 28 29 29 29 29 29 29 29 29 29 30 30 30 29 29 29 29 29 28 28 27 27 26 25 24 24 23 23 23
18 19 20 20 20 21 22 23 23 24 25 25 26 25 26 26 26 25 26 26 27 27 27 27 27 27 27 27 27 27 26 26 25 25 24 23 23 22 21 21 21 21 21
16 17 18 18 19 20 21 22 22 22 22 22 22 23 23 23 23 24 24 25 25 25 24 24 24 24 24 24 24 24 23 23 22 21 21 20 20 20 20 20 19 19 18
14 15 15 16 17 17 19 19 19 19 19 19 19 19 20 21 21 22 22 22 22 22 21 21 21 21 22 21 21 20 20 19 19 18 18 18 18 18 17 17 17 16 15
13 13 13 13 14 14 14 14 15 15 15 16 17 17 18 18 19 19 19 19 19 19 19 19 19 19 18 18 17 17 17 16 16 16 16 16 15 15 15 15 14 14 13

GEFSMA_500_meanwind_114.txt.gz
Wind_Speed
25 25 25 25 25 24 25 24 23 24 24 23 24 24 24 24 24 23 22 21 21 20 20 20 19 19 18 17 17 17 17 17 17 16 16 16 16 16 17 17 17 17 18
26 27 26 26 26 25 25 25 24 24 24 24 25 25 25 25 25 24 24 23 22 22 22 22 21 21 20 20 20 20 19 19 19 19 19 20 20 20 20 20 20 20 21
26 28 27 27 27 27 26 26 26 26 25 25 26 26 27 26 25 24 24 23 24 23 23 23 23 23 23 23 22 22 22 22 22 22 22 22 23 23 23 23 23 23 24
27 28 29 28 29 29 28 28 27 27 26 26 26 26 26 26 26 25 24 25 25 24 24 25 25 24 25 24 24 24 24 24 24 24 25 25 25 25 25 26 26 26 27
27 28 28 28 29 30 29 29 28 27 27 27 26 25 26 27 27 26 25 25 25 25 26 26 26 25 26 26 26 26 26 27 27 27 27 28 28 28 29 29 29 29 30
26 26 26 27 29 29 29 29 29 29 28 28 27 26 26 27 28 28 26 26 27 27 27 27 28 27 27 27 28 28 28 29 29 30 30 30 30 31 31 31 32 32 33
26 27 28 27 26 26 27 29 30 29 28 28 28 27 27 27 29 29 29 29 29 29 29 29 29 29 29 29 30 30 30 31 32 33 33 33 33 33 33 34 34 35 35
25 25 27 27 26 25 26 27 29 30 30 30 28 28 28 29 29 30 31 30 30 31 31 31 31 31 32 32 31 31 32 34 35 35 35 36 36 36 36 36 36 37 38
25 24 25 25 26 26 26 26 27 29 30 30 29 30 30 30 30 30 31 32 32 32 33 32 32 33 34 35 34 34 35 36 37 37 37 37 38 38 38 39 39 39 40
26 26 26 25 25 26 26 27 26 27 28 28 29 29 30 31 31 31 32 33 33 33 34 35 35 35 36 37 37 38 38 38 38 38 38 38 39 39 40 40 40 40 41
26 26 26 26 26 26 26 27 27 27 27 28 29 30 32 32 32 33 34 34 34 34 34 35 36 36 37 37 37 37 37 38 38 39 39 39 40 40 40 40 40 41 41
26 26 26 27 27 27 27 27 28 29 28 28 28 29 31 31 32 33 34 34 35 34 34 34 34 36 36 37 37 37 38 38 38 39 40 40 40 39 39 40 40 41 42
26 26 27 28 28 28 28 28 27 28 28 28 28 28 29 30 31 32 33 33 34 35 34 34 35 35 36 36 37 37 37 38 38 39 39 39 39 39 40 41 42 43 44
27 28 28 28 28 29 29 28 27 27 27 28 28 28 29 30 30 32 32 32 33 33 34 35 35 35 36 35 35 36 36 37 38 38 39 40 40 40 42 42 43 44 45
28 28 29 28 28 28 28 28 28 28 28 29 29 28 28 28 28 29 31 31 32 32 32 33 33 33 34 34 34 35 36 37 37 38 39 39 40 41 42 42 43 44 44
28 29 29 29 29 29 29 29 29 29 28 28 28 29 28 28 28 28 29 30 31 32 32 32 33 33 34 34 34 35 36 37 37 38 39 40 40 40 41 41 42 42 43
27 28 28 28 28 29 30 29 29 28 28 28 29 29 29 30 30 30 31 32 32 33 32 32 33 33 34 34 35 36 37 37 38 38 39 39 39 39 39 39 39 39 39
26 27 27 27 28 28 28 28 27 27 28 29 29 29 29 29 30 31 32 31 31 31 31 32 33 33 33 34 34 35 36 37 37 37 37 37 37 36 36 37 37 36 36
26 25 25 25 25 25 25 25 27 27 28 29 29 29 29 29 30 30 31 30 31 31 32 32 32 33 33 33 34 35 35 35 35 35 34 35 35 35 35 35 34 34 33
23 23 23 24 24 23 24 24 25 25 27 27 27 27 27 28 29 29 29 30 31 31 31 31 31 31 32 32 33 33 33 33 32 32 32 32 33 33 33 33 32 32 31
21 21 21 21 22 22 23 23 24 24 24 25 26 26 26 27 27 28 28 28 28 28 29 30 30 30 31 31 31 31 31 31 31 31 31 31 31 31 30 29 29 29 28
19 20 21 20 21 21 22 22 23 23 24 24 25 25 25 26 25 25 25 26 26 26 27 28 28 29 29 29 30 30 30 30 30 29 28 28 28 28 27 27 26 26 26
17 17 17 18 18 19 20 21 22 21 21 22 22 21 21 22 22 23 23 24 24 24 25 26 26 27 27 27 28 28 27 26 26 26 26 25 25 24 24 24 23 23 23
13 13 13 14 15 16 16 17 17 17 17 18 18 19 20 21 21 21 21 21 21 22 22 23 23 24 24 24 24 24 23 22 23 23 22 22 22 21 21 21 20 20 20
10 10 11 11 12 12 13 13 13 14 15 15 16 17 17 18 18 18 19 19 19 20 21 21 21 21 20 20 20 20 20 20 20 20 19 19 19 18 18 18 18 18 18
8 9 9 9 10 11 10 10 10 11 11 12 13 14 14 15 15 15 15 16 17 17 17 17 17 17 17 17 17 17 17 18 17 17 17 16 16 16 17 17 17 17 17